SB KEPS @ AMSAT $ORB15043.O Orbital Elements 15043.OSCAR
HR AMSAT ORBITAL ELEMENTS FOR OSCAR SATELLITES FROM WA5QGD FORT WORTH,TX February 12, 2015 BID: ORB15043.O TO ALL RADIO AMATEURS BT
Satellite: AO-07 Catalog number: 07530 Epoch time: 15042.56119884 Element set: 999 Inclination: 101.5058 deg RA of node: 021.7848 deg Eccentricity: 0.0011909 Arg of perigee: 186.4820 deg Mean anomaly: 293.7602 deg Mean motion: 12.53611822 rev/day Decay rate: -3.3e-07 rev/day^2 Epoch rev: 84151 Checksum: 299
Satellite: FO-29 Catalog number: 24278 Epoch time: 15043.03038258 Element set: 999 Inclination: 098.5261 deg RA of node: 028.8389 deg Eccentricity: 0.0350922 Arg of perigee: 035.5325 deg Mean anomaly: 008.0176 deg Mean motion: 13.53043635 rev/day Decay rate: 4.4e-07 rev/day^2 Epoch rev: 91310 Checksum: 304
Satellite: SO-33 Catalog number: 25509 Epoch time: 15042.93203853 Element set: 999 Inclination: 031.4297 deg RA of node: 241.6811 deg Eccentricity: 0.0348231 Arg of perigee: 055.2814 deg Mean anomaly: 081.8663 deg Mean motion: 14.29837754 rev/day Decay rate: 7.46e-06 rev/day^2 Epoch rev: 85148 Checksum: 329
Satellite: RS-22 Catalog number: 27939 Epoch time: 15043.44085697 Element set: 999 Inclination: 097.8245 deg RA of node: 211.0017 deg Eccentricity: 0.0014019 Arg of perigee: 064.9400 deg Mean anomaly: 295.3259 deg Mean motion: 14.65792147 rev/day Decay rate: 1.641e-05 rev/day^2 Epoch rev: 60791 Checksum: 327
Satellite: HO-68 Catalog number: 36122 Epoch time: 15043.36573228 Element set: 999 Inclination: 100.2130 deg RA of node: 092.5315 deg Eccentricity: 0.0007633 Arg of perigee: 047.5318 deg Mean anomaly: 312.6443 deg Mean motion: 13.16323787 rev/day Decay rate: -6.0e-07 rev/day^2 Epoch rev: 24803 Checksum: 282
Satellite: AO-73 Catalog number: 39444 Epoch time: 15043.14986766 Element set: 999 Inclination: 097.7462 deg RA of node: 110.4492 deg Eccentricity: 0.0060747 Arg of perigee: 181.9523 deg Mean anomaly: 178.1461 deg Mean motion: 14.79625205 rev/day Decay rate: 2.833e-05 rev/day^2 Epoch rev: 6492 Checksum: 345
Satellite: EO-79 Catalog number: 40025 Epoch time: 15043.44833583 Element set: 999 Inclination: 097.9648 deg RA of node: 303.5014 deg Eccentricity: 0.0011745 Arg of perigee: 232.2465 deg Mean anomaly: 127.7638 deg Mean motion: 14.86536393 rev/day Decay rate: 3.897e-05 rev/day^2 Epoch rev: 3526 Checksum: 340
/EX SB KEPS @ AMSAT $ORB15043.D Orbital Elements 15043.MICROS
HR AMSAT ORBITAL ELEMENTS FOR THE MICROSATS FROM WA5QGD FORT WORTH,TX February 12, 2015 BID: ORB15043.D TO ALL RADIO AMATEURS BT
Satellite: UO-11 Catalog number: 14781 Epoch time: 15043.15073097 Element set: 999 Inclination: 097.8186 deg RA of node: 103.2215 deg Eccentricity: 0.0010086 Arg of perigee: 117.7443 deg Mean anomaly: 242.4794 deg Mean motion: 14.82156944 rev/day Decay rate: 8.16e-06 rev/day^2 Epoch rev: 66350 Checksum: 311
Satellite: AO-16 Catalog number: 20439 Epoch time: 15041.78051105 Element set: 999 Inclination: 098.5311 deg RA of node: 339.9053 deg Eccentricity: 0.0011274 Arg of perigee: 168.8101 deg Mean anomaly: 220.9592 deg Mean motion: 14.32488076 rev/day Decay rate: 1.82e-06 rev/day^2 Epoch rev: 30864 Checksum: 303
Satellite: LO-19 Catalog number: 20442 Epoch time: 15041.86732445 Element set: 999 Inclination: 098.5023 deg RA of node: 339.9283 deg Eccentricity: 0.0012443 Arg of perigee: 157.6464 deg Mean anomaly: 202.5265 deg Mean motion: 14.32683863 rev/day Decay rate: 1.71e-06 rev/day^2 Epoch rev: 30885 Checksum: 319
Satellite: AO-27 Catalog number: 22825 Epoch time: 15042.25232346 Element set: 999 Inclination: 098.6942 deg RA of node: 352.4357 deg Eccentricity: 0.0007551 Arg of perigee: 322.6962 deg Mean anomaly: 125.1285 deg Mean motion: 14.29833700 rev/day Decay rate: 1.66e-06 rev/day^2 Epoch rev: 11494 Checksum: 312
Satellite: IO-26 Catalog number: 22826 Epoch time: 15041.82979423 Element set: 999 Inclination: 098.6884 deg RA of node: 352.1980 deg Eccentricity: 0.0007993 Arg of perigee: 315.0887 deg Mean anomaly: 044.9647 deg Mean motion: 14.30145378 rev/day Decay rate: 1.86e-06 rev/day^2 Epoch rev: 11502 Checksum: 345
Satellite: GO-32 Catalog number: 25397 Epoch time: 15043.13436468 Element set: 999 Inclination: 098.5049 deg RA of node: 357.6037 deg Eccentricity: 0.0001051 Arg of perigee: 032.7703 deg Mean anomaly: 033.7695 deg Mean motion: 14.23516431 rev/day Decay rate: 7.7e-07 rev/day^2 Epoch rev: 86200 Checksum: 305
Satellite: NO-44 Catalog number: 26931 Epoch time: 15041.79386921 Element set: 999 Inclination: 067.0525 deg RA of node: 143.1090 deg Eccentricity: 0.0006829 Arg of perigee: 267.9078 deg Mean anomaly: 092.1242 deg Mean motion: 14.30256211 rev/day Decay rate: 1.58e-06 rev/day^2 Epoch rev: 69772 Checksum: 319
Satellite: SO-50 Catalog number: 27607 Epoch time: 15042.91279502 Element set: 999 Inclination: 064.5550 deg RA of node: 221.2262 deg Eccentricity: 0.0074066 Arg of perigee: 313.5459 deg Mean anomaly: 045.9506 deg Mean motion: 14.74442933 rev/day Decay rate: 8.45e-06 rev/day^2 Epoch rev: 65281 Checksum: 315
Satellite: CO-55 Catalog number: 27844 Epoch time: 15042.01107101 Element set: 999 Inclination: 098.6973 deg RA of node: 052.3365 deg Eccentricity: 0.0008680 Arg of perigee: 308.1613 deg Mean anomaly: 105.0062 deg Mean motion: 14.21709854 rev/day Decay rate: 3.74e-06 rev/day^2 Epoch rev: 60251 Checksum: 288
Satellite: CO-57 Catalog number: 27848 Epoch time: 15042.00008667 Element set: 999 Inclination: 098.7070 deg RA of node: 052.1666 deg Eccentricity: 0.0008641 Arg of perigee: 316.1557 deg Mean anomaly: 097.7983 deg Mean motion: 14.21369690 rev/day Decay rate: 3.24e-06 rev/day^2 Epoch rev: 60242 Checksum: 328
Satellite: AO-51 Catalog number: 28375 Epoch time: 15042.82369682 Element set: 999 Inclination: 098.2808 deg RA of node: 346.9595 deg Eccentricity: 0.0082354 Arg of perigee: 349.0982 deg Mean anomaly: 010.8421 deg Mean motion: 14.41582070 rev/day Decay rate: 3.19e-06 rev/day^2 Epoch rev: 55842 Checksum: 342
Satellite: CP3 Catalog number: 31129 Epoch time: 15043.17936914 Element set: 999 Inclination: 097.9650 deg RA of node: 014.5019 deg Eccentricity: 0.0096680 Arg of perigee: 344.1967 deg Mean anomaly: 146.3049 deg Mean motion: 14.55469339 rev/day Decay rate: 2.468e-05 rev/day^2 Epoch rev: 41493 Checksum: 343
Satellite: CO-65 Catalog number: 32785 Epoch time: 15043.18622141 Element set: 999 Inclination: 097.6669 deg RA of node: 091.2822 deg Eccentricity: 0.0014997 Arg of perigee: 117.5823 deg Mean anomaly: 278.3792 deg Mean motion: 14.86365209 rev/day Decay rate: 2.647e-05 rev/day^2 Epoch rev: 36766 Checksum: 363
Satellite: PRISM Catalog number: 33493 Epoch time: 15043.47953831 Element set: 999 Inclination: 098.2515 deg RA of node: 234.8714 deg Eccentricity: 0.0017234 Arg of perigee: 020.9970 deg Mean anomaly: 339.1977 deg Mean motion: 14.92034220 rev/day Decay rate: 7.367e-05 rev/day^2 Epoch rev: 32797 Checksum: 330
Satellite: SOHLA-1 Catalog number: 33496 Epoch time: 15042.42704943 Element set: 999 Inclination: 098.1936 deg RA of node: 169.3977 deg Eccentricity: 0.0006307 Arg of perigee: 192.3905 deg Mean anomaly: 238.4453 deg Mean motion: 14.71191048 rev/day Decay rate: 6.68e-06 rev/day^2 Epoch rev: 32468 Checksum: 339
Satellite: TISAT-1 Catalog number: 36799 Epoch time: 15043.20999292 Element set: 999 Inclination: 098.0127 deg RA of node: 142.2568 deg Eccentricity: 0.0012123 Arg of perigee: 254.8261 deg Mean anomaly: 165.8976 deg Mean motion: 14.87565333 rev/day Decay rate: 5.081e-05 rev/day^2 Epoch rev: 24837 Checksum: 343
Satellite: STUDSAT Catalog number: 36801 Epoch time: 15043.23503572 Element set: 999 Inclination: 098.0507 deg RA of node: 156.4242 deg Eccentricity: 0.0006396 Arg of perigee: 204.3321 deg Mean anomaly: 242.7796 deg Mean motion: 15.06024452 rev/day Decay rate: 2.6460e-04 rev/day^2 Epoch rev: 24912 Checksum: 286
Satellite: ALMASAT-1 Catalog number: 38078 Epoch time: 15043.14069966 Element set: 999 Inclination: 069.4571 deg RA of node: 193.3863 deg Eccentricity: 0.0517964 Arg of perigee: 069.3791 deg Mean anomaly: 296.2028 deg Mean motion: 14.68137436 rev/day Decay rate: 4.0875e-04 rev/day^2 Epoch rev: 15661 Checksum: 363
Satellite: XATCOBEO Catalog number: 38082 Epoch time: 14243.34478676 Element set: 999 Inclination: 069.3815 deg RA of node: 097.0364 deg Eccentricity: 0.0033293 Arg of perigee: 225.1799 deg Mean anomaly: 135.4582 deg Mean motion: 16.41261006 rev/day Decay rate: 1.3583328e-01 rev/day^2 Epoch rev: 13623 Checksum: 330
Satellite: CUBEBUG-1 Catalog number: 39153 Epoch time: 15043.19589900 Element set: 999 Inclination: 098.0237 deg RA of node: 127.9325 deg Eccentricity: 0.0016267 Arg of perigee: 298.3933 deg Mean anomaly: 061.5638 deg Mean motion: 14.78744212 rev/day Decay rate: 2.363e-05 rev/day^2 Epoch rev: 9700 Checksum: 328
Satellite: ESTCUBE-1 Catalog number: 39161 Epoch time: 15043.44911086 Element set: 999 Inclination: 098.0787 deg RA of node: 127.4674 deg Eccentricity: 0.0009891 Arg of perigee: 358.8209 deg Mean anomaly: 001.2976 deg Mean motion: 14.70798419 rev/day Decay rate: 2.163e-05 rev/day^2 Epoch rev: 9490 Checksum: 344
Satellite: DUCHIFAT-1 Catalog number: 40021 Epoch time: 15043.46936768 Element set: 999 Inclination: 097.9647 deg RA of node: 303.6803 deg Eccentricity: 0.0012831 Arg of perigee: 232.4375 deg Mean anomaly: 127.5661 deg Mean motion: 14.87130811 rev/day Decay rate: 5.425e-05 rev/day^2 Epoch rev: 3526 Checksum: 306
Satellite: NANOSATCBR1 Catalog number: 40024 Epoch time: 15043.42909953 Element set: 999 Inclination: 097.9628 deg RA of node: 303.5249 deg Eccentricity: 0.0011882 Arg of perigee: 230.0635 deg Mean anomaly: 129.9524 deg Mean motion: 14.86831210 rev/day Decay rate: 4.931e-05 rev/day^2 Epoch rev: 3525 Checksum: 304
